Columbia@I.B.

Start Stop
DateFlow
CFS
Gauge
Feet
DateFlow
CFS
Gauge
Feet
08/05/2020 18:00127000102.05
08/05/2020 17:00127000102.01
08/05/2020 16:00127000101.91
08/05/2020 15:00127000101.76
08/05/2020 14:00122000101.28
08/05/2020 13:00121000101.24
08/05/2020 12:00120000101.19
08/05/2020 11:00120000101.09
08/05/2020 10:00118000100.83
08/05/2020 09:00111000100.16
08/05/2020 08:00108000100.15
08/05/2020 07:00110000100.15
08/05/2020 06:00110000100.13
08/05/2020 05:00111000100.14
08/05/2020 04:00108000100.16
08/05/2020 02:00109000100.27
08/05/2020 01:00110000100.43
08/05/2020 00:00112000100.94
08/04/2020 23:00114000100.96
08/04/2020 22:00117000101.62
08/04/2020 21:00125000101.78
08/04/2020 20:00125000102.1
08/04/2020 19:00129000102.13
08/04/2020 18:00130000102.12
08/04/2020 17:00130000102.14
08/04/2020 16:00128000102.14
08/04/2020 15:00129000102.1
08/04/2020 14:00128000102.05
08/04/2020 13:00128000101.9
08/04/2020 12:00125000101.49
08/04/2020 11:00123000101.28
08/04/2020 10:00118000100.72
08/04/2020 09:00111000100.29
08/04/2020 08:00109000100.31
08/04/2020 07:00110000100.28
08/04/2020 06:00 100.31
08/04/2020 05:00 100.34
08/04/2020 04:00110000100.48
08/04/2020 03:00113000100.73
08/04/2020 02:00115000101.33
08/04/2020 01:00121000102.07
08/04/2020 00:00134000102.61
08/03/2020 23:00131000102.41
08/03/2020 22:00130000102.41
08/03/2020 21:00132000102.44
08/03/2020 20:00129000102.45
08/03/2020 19:00133000102.46
08/03/2020 18:00132000102.45
08/03/2020 17:00133000102.43
08/03/2020 16:00132000102.34
08/03/2020 15:00130000102.1
08/03/2020 14:00128000101.92
08/03/2020 13:00122000101.56
08/03/2020 12:00123000101.55
08/03/2020 11:00121000101.52
08/03/2020 10:00122000101.44
08/03/2020 09:00120000101.25
08/03/2020 08:00118000100.64
08/03/2020 07:0010600099.86
08/03/2020 06:0010600099.83
08/03/2020 05:0010400099.85
08/03/2020 04:0010300099.84
08/03/2020 03:0010500099.89
08/03/2020 02:00106000100.04
08/03/2020 01:00107000100.36
08/03/2020 00:00112000101.23
08/02/2020 23:00118000101.32
08/02/2020 22:00117000101.49
08/02/2020 21:00126000101.93
08/02/2020 20:00126000101.95
08/02/2020 19:00127000101.94
08/02/2020 18:00127000101.97
08/02/2020 17:00126000101.98
08/02/2020 16:00127000101.95
08/02/2020 15:00126000101.89
08/02/2020 14:00127000101.82
08/02/2020 13:00125000101.64
08/02/2020 12:00120000101.11
08/02/2020 11:00116000100.79
08/02/2020 10:00107000100.02
08/02/2020 09:0010500099.98
08/02/2020 08:0010500099.98
08/02/2020 07:00104000100.01
08/02/2020 06:00108000100.06
08/02/2020 05:00104000100.12
08/02/2020 04:00105000100.24
08/02/2020 03:00107000100.54
08/02/2020 02:00114000101.21
08/02/2020 01:00124000101.95
08/02/2020 00:00126000102.24
08/01/2020 23:00135000102.75
08/01/2020 22:00133000102.76
08/01/2020 21:00135000102.77
08/01/2020 20:00136000102.8
08/01/2020 19:00137000102.83
08/01/2020 18:00137000102.86
08/01/2020 17:00135000102.8
08/01/2020 16:00133000102.54
08/01/2020 15:00132000102.5
08/01/2020 14:00135000102.64
08/01/2020 13:00134000102.78
08/01/2020 12:00135000102.84
08/01/2020 11:00137000102.82
08/01/2020 10:00136000102.64
08/01/2020 09:00131000102.03
08/01/2020 08:00121000101.11
08/01/2020 07:00117000101.08
08/01/2020 06:00117000101.09
08/01/2020 05:00119000101.11
08/01/2020 04:00118000101.14
08/01/2020 03:00118000101.24
08/01/2020 02:00117000101.42
08/01/2020 01:00121000101.79
08/01/2020 00:00134000102.69
07/31/2020 23:00135000102.7
07/31/2020 22:00 102.71
07/31/2020 21:00 102.75
07/31/2020 20:00135000102.81
07/31/2020 19:00138000102.99
07/31/2020 18:00142000103.48
07/31/2020 17:00144000103.47
07/31/2020 16:00143000103.44
07/31/2020 15:00142000103.37
07/31/2020 14:00141000103.16
07/31/2020 13:00135000102.65
07/31/2020 12:00134000102.61
07/31/2020 11:00134000102.6
07/31/2020 10:00133000102.59
07/31/2020 09:00132000102.55
07/31/2020 08:00133000102.45
07/31/2020 07:00132000102.22
07/31/2020 06:00125000101.65
07/31/2020 05:00122000101.62
07/31/2020 04:00123000101.63
07/31/2020 03:00123000101.66
07/31/2020 02:00124000101.78
07/31/2020 01:00126000102.03
07/31/2020 00:00130000102.74
07/30/2020 23:00136000102.81
07/30/2020 22:00135000102.85
07/30/2020 21:00135000102.87
07/30/2020 20:00137000102.88
07/30/2020 19:00 102.89
07/30/2020 18:00137000102.9
07/30/2020 17:00135000103.21
07/30/2020 16:00142000103.34
07/30/2020 15:00 103.35
07/30/2020 14:00142000103.38
07/30/2020 13:00143000103.41
07/30/2020 12:00140000103.2
07/30/2020 11:00141000103.12
07/30/2020 10:00138000102.94
07/30/2020 09:00135000102.67
07/30/2020 08:00133000102.68
07/30/2020 07:00134000102.69
07/30/2020 06:00135000102.69
07/30/2020 05:00 102.68
07/30/2020 04:00135000102.68
07/30/2020 03:00134000102.66
07/30/2020 02:00133000102.63
07/30/2020 01:00135000102.59
07/30/2020 00:00132000102.44
07/29/2020 23:00129000102.15
07/29/2020 22:00129000102.18
07/29/2020 21:00127000102.24
07/29/2020 20:00128000102.38
07/29/2020 19:00131000102.78
07/29/2020 18:00139000103.32
07/29/2020 17:00142000103.47
07/29/2020 16:00143000103.45
07/29/2020 15:00141000103.37
07/29/2020 14:00142000103.34
07/29/2020 13:00140000103.23
07/29/2020 12:00138000102.98
07/29/2020 11:00134000102.7
07/29/2020 10:00135000102.71
07/29/2020 09:00134000102.72
07/29/2020 08:00 102.69
07/29/2020 07:00 102.69
07/29/2020 06:00 102.68
07/29/2020 05:00134000102.69
07/29/2020 04:00135000102.73
07/29/2020 03:00136000102.78
07/29/2020 02:00 102.81
07/29/2020 01:00 102.81
07/29/2020 00:00136000102.8
07/28/2020 23:00137000102.81
07/28/2020 22:00136000102.9
07/28/2020 21:00138000103
07/28/2020 20:00 103
07/28/2020 19:00138000103.02
07/28/2020 18:00139000103.02
07/28/2020 17:00138000103.04
07/28/2020 16:00139000103.07
07/28/2020 14:00139000103.07
07/28/2020 13:00138000103.08
07/28/2020 12:00139000103.09
07/28/2020 11:00140000103.12
07/28/2020 10:00139000103.11
07/28/2020 09:00142000103.14
07/28/2020 08:00134000102.55
07/28/2020 07:00133000102.56
07/28/2020 06:00135000102.57
07/28/2020 05:00135000102.59
07/28/2020 04:00133000102.61
07/28/2020 03:00134000102.62
07/28/2020 02:00133000102.6
07/28/2020 01:00 102.56
07/28/2020 00:00133000102.49
07/27/2020 23:00131000102.33
07/27/2020 22:00130000102.3
07/27/2020 21:00129000102.36
07/27/2020 20:00133000102.55
07/27/2020 19:00133000102.64
07/27/2020 18:00132000102.54
07/27/2020 17:00131000102.83
07/27/2020 16:00141000103.29
07/27/2020 15:00 103.26
07/27/2020 14:00 103.25
07/27/2020 13:00141000103.23
07/27/2020 12:00140000103.19
07/27/2020 11:00140000103.13
07/27/2020 10:00139000103.02
07/27/2020 09:00136000102.55
07/27/2020 08:00133000102.51
07/27/2020 07:00131000102.5
07/27/2020 06:00133000102.53
07/27/2020 05:00132000102.58
07/27/2020 04:00132000102.71
07/27/2020 03:00136000102.88
07/27/2020 01:00136000102.91
07/27/2020 00:00137000102.94
07/26/2020 23:00136000102.9
07/26/2020 22:00137000102.92
07/26/2020 21:00135000102.89
07/26/2020 20:00137000102.88
07/26/2020 19:00 102.9
07/26/2020 18:00 102.89
07/26/2020 17:00137000102.9
07/26/2020 16:00136000102.91
07/26/2020 15:00137000102.91
07/26/2020 14:00137000102.9
07/26/2020 13:00138000102.9
07/26/2020 12:00135000102.95
07/26/2020 11:00137000102.95
07/26/2020 10:00137000102.96
07/26/2020 09:00139000102.99
07/26/2020 08:00139000103
07/26/2020 07:00138000103.05
07/26/2020 06:00 103.09
07/26/2020 05:00138000103.1
07/26/2020 04:00139000103.12
07/26/2020 03:00139000 
07/26/2020 02:00140000 
07/26/2020 01:00139000103.12
07/26/2020 00:00139000103.08
07/25/2020 23:00138000103.07
07/25/2020 22:00138000103.02
07/25/2020 21:00137000103.05
07/25/2020 20:00136000103.03
07/25/2020 19:00138000103.03
07/25/2020 18:00138000103
07/25/2020 17:00136000102.97
07/25/2020 16:00136000102.98
07/25/2020 15:00138000102.97
07/25/2020 14:00137000102.94
07/25/2020 13:00136000102.92
07/25/2020 12:00137000102.88
07/25/2020 11:00135000102.88
07/25/2020 10:00137000102.87
07/25/2020 09:00138000102.93
07/25/2020 08:00137000102.95
07/25/2020 07:00138000102.98
07/25/2020 06:00139000102.96
07/25/2020 05:00137000102.94
07/25/2020 04:00138000102.95
07/25/2020 03:00136000102.92
07/25/2020 02:00137000102.88
07/25/2020 01:00136000102.84
07/25/2020 00:00136000102.75
07/24/2020 23:00134000102.65
07/24/2020 22:00133000102.52
07/24/2020 21:00132000102.37
07/24/2020 20:00130000102.22
07/24/2020 19:00129000102.19
07/24/2020 18:00128000102.16
07/24/2020 17:00130000102.17
07/24/2020 16:00129000102.12
07/24/2020 15:00128000102.01
07/24/2020 14:00127000101.86
07/24/2020 13:00123000101.76
07/24/2020 12:00125000101.75
07/24/2020 11:00124000101.74
07/24/2020 10:00123000101.73
07/24/2020 09:00123000101.73
07/24/2020 08:00125000101.71
07/24/2020 07:00124000101.72
07/24/2020 06:00125000101.73
07/24/2020 05:00 101.77
07/24/2020 04:00 101.76
07/24/2020 03:00 101.73
07/24/2020 02:00 101.7
07/24/2020 01:00125000101.69
07/24/2020 00:00122000101.71
07/23/2020 23:00122000101.74
07/23/2020 22:00123000101.78
07/23/2020 21:00124000101.87
07/23/2020 20:00126000102.08
07/23/2020 19:00128000102.23
07/23/2020 18:00133000102.49
07/23/2020 17:00131000102.51
07/23/2020 16:00133000102.55
07/23/2020 15:00132000102.51
07/23/2020 14:00134000102.53
07/23/2020 13:00132000102.51
07/23/2020 12:00130000102.48
07/23/2020 11:00132000102.48
07/23/2020 10:00133000102.45
07/23/2020 09:00 102.46
07/23/2020 08:00133000102.47
07/23/2020 07:00132000102.46
07/23/2020 06:00133000102.46
07/23/2020 05:00 102.51
07/23/2020 04:00133000102.63
07/23/2020 03:00135000102.75
07/23/2020 02:00137000 
07/23/2020 01:00137000102.79
07/23/2020 00:00136000102.83
07/22/2020 23:00139000102.87
07/22/2020 22:00137000102.9
07/22/2020 21:00138000102.91
07/22/2020 20:00138000102.96
07/22/2020 19:00139000103.06
07/22/2020 18:00139000103.12
07/22/2020 17:00141000103.21
07/22/2020 16:00139000103.26
07/22/2020 15:00141000103.22
07/22/2020 14:00140000103.04
07/22/2020 13:00138000102.96
07/22/2020 12:00139000102.95
07/22/2020 11:00139000102.95
07/22/2020 10:00138000102.96
07/22/2020 09:00137000 
07/22/2020 08:00138000102.96
07/22/2020 07:00138000103
07/22/2020 06:00139000103.07
07/22/2020 05:00140000103.16
07/22/2020 04:00139000103.15
07/22/2020 03:00140000103.18
07/22/2020 02:00141000 
07/22/2020 01:00140000103.24
07/22/2020 00:00141000103.24
07/21/2020 23:00141000103.23
07/21/2020 22:00140000103.27
07/21/2020 21:00140000103.27
07/21/2020 20:00141000103.26
07/21/2020 19:00140000103.33
07/21/2020 18:00142000103.44
07/21/2020 17:00143000103.5
07/21/2020 16:00144000103.56
07/21/2020 15:00145000103.6
07/21/2020 14:00143000103.33
07/21/2020 13:00141000103.3
07/21/2020 12:00 103.3
07/21/2020 11:00 103.27
07/21/2020 10:00 108.11
07/21/2020 09:00 103.27
07/21/2020 08:00 108.06
07/21/2020 07:00141000103.33
07/21/2020 06:00142000103.37
07/21/2020 05:00142000103.56
07/21/2020 04:00145000104.08
07/21/2020 03:00153000104.54
07/21/2020 02:00155000104.63
07/21/2020 01:00155000104.65
07/21/2020 00:00156000104.64
07/20/2020 23:00156000104.45
07/20/2020 22:00145000103.67
07/20/2020 21:00143000103.59
07/20/2020 20:00144000103.53
07/20/2020 19:00143000103.54
07/20/2020 18:00144000103.51
07/20/2020 17:00145000103.51
07/20/2020 16:00143000103.56
07/20/2020 15:00145000103.59
07/20/2020 14:00143000103.55
07/20/2020 13:00144000103.55
07/20/2020 12:00144000103.54
07/20/2020 11:00143000103.37
07/20/2020 10:00142000103.27
07/20/2020 09:00140000103.25
07/20/2020 08:00142000103.45
07/20/2020 07:00145000103.68
07/20/2020 06:00144000103.7
07/20/2020 05:00142000103.74
07/20/2020 04:00146000103.81
07/20/2020 03:00146000103.87
07/20/2020 02:00145000 
07/20/2020 01:00149000104.09
07/20/2020 00:00151000104.39
07/19/2020 23:00158000104.84
07/19/2020 22:00159000104.84
07/19/2020 21:00157000104.73
07/19/2020 20:00155000104.43
07/19/2020 19:00148000103.97
07/19/2020 18:00147000103.93
07/19/2020 17:00148000103.88
07/19/2020 16:00144000103.79
07/19/2020 15:00145000103.75
07/19/2020 14:00145000103.73
07/19/2020 13:00144000103.63
07/19/2020 12:00144000108.44
07/19/2020 11:00145000103.72
07/19/2020 10:00146000103.73
07/19/2020 09:00145000103.67
07/19/2020 08:00143000103.58
07/19/2020 07:00146000103.79
07/19/2020 06:00145000103.82
07/19/2020 05:00147000103.87
07/19/2020 04:00148000103.99
07/19/2020 03:00150000104.22
07/19/2020 02:00151000 
07/19/2020 01:00152000104.36
07/19/2020 00:00 104.34
07/18/2020 23:00152000104.32
07/18/2020 22:00151000104.24
07/18/2020 21:00151000104.25
07/18/2020 20:00152000104.35
07/18/2020 19:00153000104.33
07/18/2020 18:00153000104.29
07/18/2020 17:00151000104.23
07/18/2020 16:00151000104.16
07/18/2020 15:00150000104.12
07/18/2020 14:00148000103.97
07/18/2020 13:00147000103.71
07/18/2020 12:00143000103.4
07/18/2020 11:00140000103.17
07/18/2020 10:00139000103.12
07/18/2020 09:00139000107.87
07/18/2020 08:00137000103.09
07/18/2020 07:00138000103.02
07/18/2020 06:00136000102.91
07/18/2020 05:00 102.87
07/18/2020 04:00 102.9
07/18/2020 03:00136000102.91
07/18/2020 02:00135000 
07/18/2020 01:00135000102.92
07/18/2020 00:00136000102.91
07/17/2020 23:00 102.95
07/17/2020 22:00136000103
07/17/2020 21:00140000103.11
07/17/2020 20:00135000102.97
07/17/2020 19:00138000103.25
07/17/2020 18:00144000103.7
07/17/2020 17:00147000103.7
07/17/2020 16:00147000103.74
07/17/2020 15:00146000103.78
07/17/2020 14:00146000103.86
07/17/2020 13:00148000104.06
07/17/2020 12:00150000104.02
07/17/2020 11:00149000103.91
07/17/2020 10:00147000103.7
07/17/2020 09:00143000103.25
07/17/2020 08:00135000102.59
07/17/2020 07:00133000102.59
07/17/2020 06:00134000102.6
07/17/2020 05:00135000102.58
07/17/2020 04:00135000102.62
07/17/2020 03:00134000102.67
07/17/2020 02:00134000102.67
07/17/2020 01:00136000102.74
07/17/2020 00:00 102.73
07/16/2020 23:00136000102.77
07/16/2020 22:00137000102.85
07/16/2020 21:00137000102.98
07/16/2020 20:00140000103.22
07/16/2020 19:00147000103.8
07/16/2020 18:00146000103.91
07/16/2020 17:00149000104.06
07/16/2020 16:00151000104.25
07/16/2020 15:00154000104.68
07/16/2020 14:00156000104.58
07/16/2020 13:00155000104.47
07/16/2020 12:00154000104.34
07/16/2020 09:00137000102.62
07/16/2020 08:00134000102.6
07/16/2020 07:00134000102.62
07/16/2020 06:00135000102.7
07/16/2020 05:00136000102.79
07/16/2020 04:00137000102.94
07/16/2020 03:00139000103.1
07/16/2020 02:00142000 
07/16/2020 01:00145000103.59
07/16/2020 00:00148000104.21
07/15/2020 23:00150000104.2
07/15/2020 22:00148000104.07
07/15/2020 21:00150000104.17
07/15/2020 20:00153000104.39
07/15/2020 19:00 109.66
07/15/2020 18:00 104.93
07/15/2020 17:00160000104.95
07/15/2020 16:00159000104.87
07/15/2020 15:00158000104.78
07/15/2020 14:00156000104.71
07/15/2020 13:00156000104.65
07/15/2020 12:00155000104.58
07/15/2020 11:00154000104.48
07/15/2020 10:00153000104.16
07/15/2020 09:00144000103.45
07/15/2020 08:00135000103.13
07/15/2020 07:00139000103.16
07/15/2020 06:00140000103.29
07/15/2020 05:00141000103.42
07/15/2020 04:00143000103.61
07/15/2020 03:00145000103.85
07/15/2020 02:00147000 
07/15/2020 01:00159000104.85
07/15/2020 00:00158000104.84
07/14/2020 23:00156000104.58
07/14/2020 22:00149000104.21
07/14/2020 21:00151000104.2
07/14/2020 20:00151000104.21
07/14/2020 19:00150000104.23
07/14/2020 18:00151000104.25
07/14/2020 17:00 104.27
07/14/2020 16:00 104.32
07/14/2020 15:00151000104.3
07/14/2020 14:00153000104.3
07/14/2020 13:00151000104.28
07/14/2020 12:00152000104.25
07/14/2020 11:00150000104.21
07/14/2020 10:00151000104.12
07/14/2020 09:00150000103.9
07/14/2020 08:00140000103.39
07/14/2020 07:00143000103.62
07/14/2020 06:00146000103.8
07/14/2020 05:00147000103.86
07/14/2020 04:00147000103.89
07/14/2020 03:00146000103.91
07/14/2020 02:00148000103.93
07/14/2020 01:00145000104.01
07/14/2020 00:00149000104.14
07/13/2020 23:00150000104.2
07/13/2020 22:00152000104.37
07/13/2020 21:00154000104.65
07/13/2020 20:00159000104.83
07/13/2020 19:00157000104.76
07/13/2020 18:00157000104.72
07/13/2020 17:00153000104.36
07/13/2020 16:00159000105.1
07/13/2020 15:00158000105.08
07/13/2020 14:00160000105.06
07/13/2020 13:00160000105.06
07/13/2020 12:00159000104.97
07/13/2020 11:00159000104.82
07/13/2020 10:00155000104.4
07/13/2020 09:00150000104.23
07/13/2020 08:00151000104.02
07/13/2020 07:00143000103.34
07/13/2020 06:00140000103.35
07/13/2020 05:00 103.37
07/13/2020 04:00140000103.4
07/13/2020 03:00141000103.44
07/13/2020 02:00140000103.57
07/13/2020 01:00145000103.85
07/13/2020 00:00154000104.51
07/12/2020 23:00153000104.59
07/12/2020 22:00154000104.69
07/12/2020 21:00156000104.97
07/12/2020 20:00163000105.64
07/12/2020 19:00166000105.7
07/12/2020 18:00167000105.72
07/12/2020 17:00167000105.76
07/12/2020 16:00168000105.74
07/12/2020 15:00166000105.73
07/12/2020 14:00167000105.73
07/12/2020 13:00166000105.64
07/12/2020 12:00165000105.58
07/12/2020 11:00165000105.38
07/12/2020 10:00161000104.89
07/12/2020 09:00153000104.32
07/12/2020 08:00150000104.18
07/12/2020 07:00144000103.73
07/12/2020 06:00146000104.37
07/12/2020 05:00152000104.39
07/12/2020 04:00152000104.32
07/12/2020 03:00151000104.16
07/12/2020 02:00148000103.92
07/12/2020 01:00147000103.92
07/12/2020 00:00146000103.95
07/11/2020 23:00146000103.98
07/11/2020 22:00148000104.02
07/11/2020 21:00148000104.11
07/11/2020 20:00151000104.33
07/11/2020 19:00154000104.49
07/11/2020 18:00154000104.73
07/11/2020 17:00162000105.26
07/11/2020 16:00160000105.23
07/11/2020 15:00162000105.19
07/11/2020 14:00161000105.17
07/11/2020 13:00161000105.16
07/11/2020 12:00160000105.13
07/11/2020 11:00158000105.05
07/11/2020 10:00157000104.93
07/11/2020 09:00155000104.65
07/11/2020 08:00155000104.67
07/11/2020 07:00156000104.72
07/11/2020 06:00 104.77
07/11/2020 05:00156000104.91
07/11/2020 04:00159000105.25
07/11/2020 03:00163000105.33
07/11/2020 02:00161000 
07/11/2020 01:00163000105.33
07/11/2020 00:00163000105.35
07/10/2020 23:00164000105.36
07/10/2020 22:00164000105.41
07/10/2020 21:00163000105.47
07/10/2020 20:00166000105.66
07/10/2020 19:00166000105.47
07/10/2020 18:00162000105.44
07/10/2020 17:00164000105.42
07/10/2020 16:00162000105.43
07/10/2020 15:00164000105.41
07/10/2020 14:00163000105.4
07/10/2020 13:00162000105.34
07/10/2020 12:00162000105.35
07/10/2020 11:00163000105.31
07/10/2020 10:00161000105.31
07/10/2020 09:00163000105.26
07/10/2020 08:00161000105.17
07/10/2020 07:00159000104.94
07/10/2020 06:00159000104.96
07/10/2020 05:00158000105.02
07/10/2020 04:00159000105.05
07/10/2020 03:00161000105.25
07/10/2020 02:00164000 
07/10/2020 01:00164000105.43
07/10/2020 00:00165000105.55
07/09/2020 23:00169000105.9
07/09/2020 22:00170000105.9
07/09/2020 21:00 105.91
07/09/2020 20:00170000105.89
07/09/2020 19:00169000105.86
07/09/2020 18:00168000105.74
07/09/2020 17:00166000105.42
07/09/2020 16:00163000105.43
07/09/2020 15:00164000105.42
07/09/2020 14:00165000105.44
07/09/2020 13:00164000105.43
07/09/2020 12:00165000105.42
07/09/2020 11:00 110.35
07/09/2020 10:00164000105.51
07/09/2020 09:00166000105.61
07/09/2020 08:00169000105.93
07/09/2020 07:00172000106.03
07/09/2020 06:00173000106.05
07/09/2020 05:00171000111.03
07/09/2020 04:00171000106.06
07/09/2020 03:00172000106.05
07/09/2020 02:00171000 
07/09/2020 01:00173000106.06
07/09/2020 00:00171000106.07
07/08/2020 23:00 106.11
07/08/2020 22:00 106.09
07/08/2020 21:00171000106.08
07/08/2020 20:00173000106.13
07/08/2020 19:00172000106.09
07/08/2020 18:00171000106.04
07/08/2020 17:00171000105.95
07/08/2020 16:00167000105.64
07/08/2020 15:00166000105.66
07/08/2020 14:00168000105.75
07/08/2020 13:00171000105.98
07/08/2020 12:00172000106.2
07/08/2020 11:00175000106.28
07/08/2020 10:00175000106.36
07/08/2020 09:00177000106.66
07/08/2020 08:00184000106.93
07/08/2020 07:00181000106.63
07/08/2020 06:00171000105.66
07/08/2020 05:00164000105.51
07/08/2020 04:00167000105.57
07/08/2020 03:00162000105.15
07/08/2020 02:00162000 
07/08/2020 01:00165000105.71
07/08/2020 00:00168000105.9
07/07/2020 23:00174000106.34
07/07/2020 22:00175000106.36
07/07/2020 21:00175000106.37
07/07/2020 20:00174000106.36
07/07/2020 19:00176000106.37
07/07/2020 18:00176000106.34
07/07/2020 17:00175000106.3
07/07/2020 16:00174000106.05
07/07/2020 15:00168000105.74
07/07/2020 14:00169000105.75
07/07/2020 13:00169000105.77
07/07/2020 12:00168000105.81
07/07/2020 11:00169000105.81
07/07/2020 10:00170000105.79
07/07/2020 09:00168000105.76
07/07/2020 08:00169000105.71
07/07/2020 07:00167000105.58
07/07/2020 06:00163000105.33
07/07/2020 05:00165000105.5
07/07/2020 04:00168000105.97
07/07/2020 03:00176000106.54
07/07/2020 02:00177000106.53
07/07/2020 01:00178000106.54
07/07/2020 00:00177000106.55
07/06/2020 23:00178000106.54
07/06/2020 22:00179000106.54
07/06/2020 21:00 106.56
07/06/2020 20:00 106.59
07/06/2020 19:00179000106.63

Start Stop